Location: *
(58.4167°N, 22.5000°E)
Time: 01:42:09
(UTC+00:00)

Cosmos 1777 Rocket - Pass Details

Date: 22 September 2019
Orbit: 758 x 776 km, 74.0° (Epoch: 17 October)

Event Time Altitude Azimuth Distance (km) Brightness Sun altitude
Rises 20:39:04 0° 328° (NNW) 3,264 8.5 -27.9°
Reaches altitude 10° 20:41:30 10° 332° (NNW) 2,331 7.5 -28.1°
Enters shadow 20:46:24 59° 33° (NNE) 889 4.3 -28.4°
